Showing default

DEIMOS, 60526

Orbit data source: Space-Track

DEIMOS, 60526 is an American payload satellite in SSO that was launched on Fri, 16 Aug 2024 UTC via an FALCON 9 launch vehicle from the Air Force Western Test Range (AFWTR). Payload-class satellites include a variety of spacecraft equipped with specific instruments for various scientific and technological missions. These include communications satellites like Starlink; space stations such as the ISS; scientific satellites like the Hubble; Earth observation satellites from companies like Planet Labs, Umbra, and HawkEye 360; GPS; miniature CubeSats for education and research; and military/defense satellites.

Loading next visibility...
Identifier
60526, 2024-149BL
Orbit
SSO
Country
Flag of USUS
Related business
Manufacturer
Endurosat
Mission
Operational Commercial Imaging
Bus & Motor
CUBESAT 1.5U, Unknown motor
Mass
2 kg wet, 2 kg dry
Launch date (UTC)
2024-08-16 (2 years ago)
Launch vehicle
FALCON 9
Launch site
Air Force Western Test Range (AFWTR)
Object type
Payload
Rocket body
Debris
Shape & HBR
Box, 1.0 m
Radar Cross Section
0.025 m², Medium (>0.1 m² and < 1m²)

Expand to show TLE details & history
Last TLE update: 14 hours ago

TLE from 14 hours ago
0 DEIMOS
1 60526U 24149BL  26235.68600473  .00018381  00000-0  37174-3 0  9997
2 60526  97.3754 322.9280 0005911  52.8320 307.3468 15.46493168112875
Epoch: 2026-08-23T16:27Z
TLE epoch observation values (Epoch: 2026-08-23T16:27:50.808Z)
Latitude
-0.00009°
Longitude
103.98781°
Altitude
427.682 km
Speed
7.656 km/s
True Right ascension
21h 31m 42s
True Declination
0° 00' 00"
Sunlit
Object was in full shadow at epoch
Visualization orbit readout
Latitude
Unknown
Longitude
Unknown
Altitude
Unknown
Speed
Unknown
Apparent Right ascension
Unknown
Apparent Declination
Unknown
Sunlit
N/A
Visualization observer readout
Local Sidereal Time
21:35:51
Azimuth
Unknown
Elevation
Unknown
Doppler factor
Unknown
Orbital elements
Apogee altitude
427.944 km
Perigee altitude
419.903 km
Semi-major axis
6,802.061 km
Eccentricity
0.00059
Inclination
97.3754°
RAAN
322.928°
Arg. of periapsis
52.832°
True anomaly
307.29293°
Mean anomaly
307.3468°
Eccentric anomaly
307.31987°
Mean motion
3.86885 °/min
Orbital period
93.05 mins
BSTAR
0.00037174
Loading maneuver chart data...
Computing Atmospheric mass density...
Loading historical data...
Loading historical data...
Loading historical data...
Loading historical data...
Loading historical data...
Loading historical data...
Loading historical data...

Documentation

Showing up to 5 results
|